Regional Weather Roundup
Issued by NWS New Orleans/Baton Rouge, LA

Home | Current Version | Previous Version | Text Only | Print | Product List | Glossary Off
Versions: 1 2 3 4 5 6 7 8 9 10 11 12 13 14 15 16 17 18 19 20 21 22 23 24 25 26 27 28 29 30 31 32 33 34 35 36 37 38 39 40 41 42 43 44 45 46 47 48 49 50

138
ASUS44 KLIX 271705
RWRLIX
NEW ORLEANS REGIONAL WEATHER ROUNDUP
NATIONAL WEATHER SERVICE NEW ORLEANS LA
1200 PM CDT WED AUG 27 2014

NOTE: "FAIR" INDICATES FEW OR NO CLOUDS BELOW 12,000 FEET WITH NO
      SIGNIFICANT WEATHER AND/OR OBSTRUCTIONS TO VISIBILITY.
      SKY/WX - SKY CONDITION AND SIGNIFICANT WEATHER.
      TMP - AIR TEMPERATURE.     DP    - DEWPOINT TEMPERATURE.
      RH  - RELATIVE HUMIDITY.   PRES  - PRESSURE.
      HI  - HEAT INDEX.          WCI   - WIND CHILL INDEX.

*  THESE STATIONS ARE NOT NWS OR FAA STATIONS AND ARE NOT UNDER
   NWS QUALITY CONTROL.

LAZ038-040-048-061>063-065>067-069-271800-
SOUTHEAST LOUISIANA

CITY           SKY/WX    TMP DP  RH WIND       PRES   REMARKS
N.O. AUDUBON     N/A     90  74  59 MISG        N/A  HX  98
N.O. INTL ARPT PTSUNNY   89  74  60 NE13      30.02F HX  98
N.O. LAKEFRONT PTSUNNY   88  74  63 E9        30.03F HX  96
N.O. DOWNTOWN*   N/A     88  70  55 E5        30.03F
SLIDELL        MOSUNNY   90  72  55 E6        30.02F HX  97
BATON ROUGE    MOSUNNY   89  73  59 VRB7      30.03F HX  97
BOOTHVILLE     SUNNY     89  77  67 E12       30.02F HX 101
BELLE CHASSE   PTSUNNY   90  75  61 NE12      30.02S HX 100
BOGALUSA*        N/A     92  67  43 E7        30.05F HX  95
GALLIANO*      NOT AVBL
NEW ROADS*     PTSUNNY   88  72  58 E3        30.04S
GONZALES*      PTSUNNY   89  74  62 E6        30.03S HX  98
HAMMOND*       NOT AVBL
HOUMA*         MOSUNNY   90  72  55 NE7       30.01F HX  96
PORT FOURCHON* PTSUNNY   84  75  74 SE9G16    30.03S

$$

MSZ070-080>082-271800-
SOUTHERN MISSISSIPPI

CITY           SKY/WX    TMP DP  RH WIND       PRES   REMARKS
MCCOMB         SUNNY     89  68  49 SE7       30.06S
GULFPORT       MOSUNNY   89  69  51 SE14G22   30.03F
BILOXI         SUNNY     91  70  49 S13       30.04S HX  97
PASCAGOULA     MOSUNNY   90  70  51 VRB7      30.04F HX  95
STENNIS ARPT*  MOSUNNY  N/A N/A N/A SE7       30.03F

$$

COASTAL OBSERVATIONS
LAKE AND NEARSHORE STATIONS

STATION/POSITION TIME  TEMP    WIND        PRES    WAVE
                       AIR SEA DIR/SP/G            HT/PER
                 (UTC) (F)     (DEG/KT/KT) (MB)    (FT/S)
PASCAGOULA       1600   89      70/ 12/ 17 1017.1
WAVELAND YACHT   1600   86     130/  9/ 12 1016.6
GRAND ISLE       1600   87 84   80/  9/ 13 1017.0
SOUTHWEST PASS   1600   92 88   80/ 12/ 13 1016.5
NEW CANAL        1600   85 84   50/ 10/ 11 1017.4
SHELL BEACH      1600   85 81   80/ 15/ 17 1016.6

OFFSHORE STATIONS

STATION/POSITION TIME  TEMP    WIND        PRES    WAVE
                       AIR SEA DIR/SP/G            HT/PER
                 (UTC) (F)     (DEG/KT/KT) (MB)    (FT/S)
64 S DAUPHIN ISL 1642   84 86   80/ 14/ 16 1016.6

$$




USA.gov is the U.S. government's official web portal to all federal, state and local government web resources and services.